Regional Weather Roundup
Issued by NWS

Home | Current Version | Previous Version | Graphics & Text | Print | Product List | Glossary Off
Versions: 1 2 3 4 5 6 7 8 9 10 11 12 13 14 15 16 17 18 19 20 21 22 23 24 25 26 27 28 29 30 31 32 33 34 35 36 37 38 39 40 41 42 43 44 45 46 47 48 49 50

000
ASUS43 KDTX 200710
RWRMI
MICHIGAN HOURLY REGIONAL WEATHER ROUNDUP
NATIONAL WEATHER SERVICE DETROIT/PONTIAC MI
200 AM EST MON NOV 20 2017

NOTE: "FAIR" INDICATES FEW OR NO CLOUDS BELOW 12,000 FEET WITH NO
SIGNIFICANT WEATHER AND/OR OBSTRUCTION TO VISIBILITY.

MIZ047>049-052>055-059>063-066>070-074>076-081>083-200800-
SOUTHEAST LOWER MICHIGAN

CITY           SKY/WX    TMP DP  RH WIND       PRES   REMARKS
ADRIAN         PTCLDY    27  22  81 W7        30.05S WCI  19
ALMA           CLOUDY    29  24  81 SW6       29.97S WCI  23
ANN ARBOR      MOCLDY    28  22  78 SW7       30.01S WCI  21
BAD AXE        CLEAR     26  20  76 SW7       29.95S WCI  18
CARO           CLOUDY    27  21  80 SW6       29.95F WCI  20
DETROIT CITY   CLOUDY   N/A N/A N/A SW9       30.02R
DETROIT        CLOUDY    30  23  75 SW10      30.02S WCI  21
FLINT          CLOUDY    30  22  72 SW7       29.98F WCI  23
GROSSE ILE     CLOUDY    31  24  75 SW7       30.03R WCI  25
HILLSDALE      CLEAR     28  21  74 SW6       30.02S WCI  22
HOWELL         CLOUDY    30  24  78 SW6       29.98F WCI  24

CITY           SKY/WX    TMP DP  RH WIND       PRES   REMARKS
JACKSON        CLEAR     28  21  75 SW12      30.01S WCI  18
LAMBERTVILLE   CLOUDY    32  23  70 SW7       30.06R WCI  26
LANSING        CLOUDY    28  23  81 SW8       29.99F WCI  20
LAPEER         CLOUDY    29  22  75 W8        29.98S WCI  21
MASON          MOCLDY    32  24  73 SW3       30.00S
MONROE         CLOUDY    32  24  72 SW13      30.04R WCI  22
MT. CLEMENS    CLOUDY    29  23  76 SW9       29.99S WCI  21
PONTIAC        CLOUDY    28  22  78 SW7       29.97F WCI  21
PORT HOPE        N/A     30  20  66 W8        29.92S WCI  22
PORT HURON     CLEAR     27  18  69 CALM      29.99S
TRI CITIES     CLOUDY    30  23  75 SW8       29.96F WCI  22
MIDLAND        CLOUDY    29  22  76 SW3       29.95S
TROY           CLOUDY    32  23  71 SW7       30.02S WCI  25
SAGINAW HB     CLOUDY    30  23  74 SW8       29.96F WCI  23
$$
MIZ043>046-050>051-056>058-064>065-071>073-077>080-200800-
SOUTHWEST LOWER MICHIGAN

CITY           SKY/WX    TMP DP  RH WIND       PRES   REMARKS
BATTLE CREEK   MOCLDY    28  23  81 SW10      30.01F WCI  19
BENTON HARBOR  CLEAR     37  26  64 SW14      30.03F WCI  28
BIG RAPIDS     CLOUDY    30  22  71 SW5       29.92F WCI  25
COLDWATER      CLEAR     28  23  82 SW10      30.04S WCI  18
FREMONT        CLOUDY    32  26  80 SW3       29.95F
HOLLAND        CLOUDY    38  28  67 W16       29.99F WCI  29
GRAND RAPIDS   CLOUDY    34  28  79 SW7       29.97F WCI  28
IONIA          MOCLDY    31  25  76 SW8       29.97S WCI  24
KALAMAZOO      PTCLDY    28  21  75 SW12      30.02F WCI  18
LUDINGTON      CLOUDY    36  26  67 W12G21    29.92F WCI  28
MARSHALL       PTCLDY    27  22  80 SW9       30.02S WCI  18
MOUNT PLEASANT CLOUDY    32  22  66 SW6       29.94S WCI  26
MUSKEGON       CLOUDY    39  28  64 W14       29.97F WCI  31
SOUTH HAVEN    CLEAR     38  28  67 W12G18    30.01F WCI  30
$$
MIZ016>042-200800-
NORTHERN LOWER MICHIGAN

CITY           SKY/WX    TMP DP  RH WIND       PRES   REMARKS
ALPENA         CLOUDY    28  22  78 SW3       29.87S
BEAVER ISLAND  CLOUDY    31  22  68 W9        29.87S WCI  23
BELLAIRE       CLOUDY    33  26  76 W5        29.89F WCI  28
CADILLAC       CLEAR     25  20  82 SW7       29.87F WCI  17
CHARLEVOIX     CLOUDY    34  24  67 W14G23    29.89S WCI  24
FRANKFORT      CLOUDY    37  27  65 W10G17    29.89F WCI  30
GAYLORD        CLOUDY    27  21  78 W8        29.83F WCI  19
GRAYLING       MOCLDY    24  20  85 CALM      29.87F
HARBOR SPRINGS CLOUDY    32  23  69 W12G21    29.85S WCI  23
MANISTEE       CLOUDY    36  27  69 SW12G18   29.90F WCI  28
OSCODA         CLOUDY    25  18  74 SW8       29.90F WCI  16
PELLSTON       CLOUDY    30  22  72 W9        29.85S WCI  22
ROGERS CITY    CLOUDY    29  19  65 W6        29.87S WCI  23
TRAVERSE CITY  CLOUDY    31  22  69 SW5       29.88F WCI  26
$$
MIZ007>008-015-200800-
EASTERN UPPER MICHIGAN

CITY           SKY/WX    TMP DP  RH WIND       PRES   REMARKS
KINROSS        CLOUDY    25  17  72 W12       29.82S WCI  14
MACKINAC ISLAN CLOUDY    31  19  62 W13       29.84S WCI  21
NEWBERRY       CLOUDY    24  18  78 SW9       29.82S WCI  14
S. S. MARIE    MIX PCPN  27  19  72 W9G18     29.79F WCI  18
MUNISING         N/A     26  20  77 SW8       29.84S WCI  18
$$
MIZ004>006-011>014-085-200800-
CENTRAL UPPER MICHIGAN

CITY           SKY/WX    TMP DP  RH WIND       PRES   REMARKS
MANISTIQUE     CLOUDY    26  13  59 W3        29.85F
ESCANABA       CLOUDY    19  16  88 CALM      29.86F
MENOMINEE      PTCLDY    28  19  69 SW6       29.88F WCI  22
SAWYER-GWINN   CLEAR     19  16  88 S5        29.82S WCI  12
$$
MIZ001>003-009>011-084-200800-
WESTERN UPPER MICHIGAN

CITY           SKY/WX    TMP DP  RH WIND       PRES   REMARKS
IRON MOUNTAIN  CLEAR     19  13  77 CALM      29.81F
HOUGHTON       CLOUDY    26  21  81 CALM      29.77F
COPPER HARBOR    N/A     29  18  63 N9        29.80F WCI  20
IRONWOOD       PTCLDY   N/A N/A N/A CALM      29.78F
$$

ABBREVIATIONS USED IN REMARKS
   TC - TEMPERATURE IN CELSIUS
  WCI - WIND CHILL INDEX
   HX - HEAT INDEX
  VSB - VISIBILITY





USA.gov is the U.S. government's official web portal to all federal, state and local government web resources and services.